Location: Koussan�
(15.2012°N, 12.5548°W)
Time: 18:49:27
(UTC+00:00)

Cosmos 1992 Rocket - Pass Details

Date: 20 October 2020
Orbit: 759 x 766 km, 74.0° (Epoch: 30 November)

Event Time Altitude Azimuth Distance (km) Brightness Sun altitude
Rises 19:47:05 0° 179° (S) 3,211 7.3 -20.0°
Reaches altitude 10° 19:49:32 10° 173° (S) 2,286 6.4 -20.6°
Enters shadow 19:54:02 44° 116° (ESE) 1,036 4.3 -21.7°
